Theta_e
304 306 306 306 308 308 307 307 308 307 309 309 310 311 311 309 308 308 307 306 306 304
296 301 302 303 303 302 303 300 299 300 302 303 303 304 304 303 302 302 301 300 300 299
292 294 295 297 297 298 299 300 299 297 297 297 297 299 299 297 297 296 294 294 293 293
289 291 292 291 291 291 291 293 292 292 293 293 292 293 292 291 291 289 289 289 288 287
287 288 288 288 288 289 288 288 287 287 287 288 288 288 287 285 285 284 284 284 283 283
285 285 285 285 286 286 286 285 285 284 284 284 285 285 285 284 283 282 282 282 282 281
282 283 283 284 284 284 284 283 282 282 282 283 283 283 283 283 281 281 281 281 281 281
280 281 281 281 281 281 281 281 281 281 281 282 283 283 282 282 281 280 279 280 280 280
279 279 279 279 279 279 279 279 279 279 280 280 283 285 284 282 280 280 279 279 279 279
277 277 277 278 278 277 277 278 278 279 279 279 281 283 283 281 279 278 279 279 278 279
276 276 276 276 276 276 276 276 277 277 278 279 280 282 281 280 278 278 278 278 278 278
275 275 275 275 274 275 275 275 276 277 277 277 279 281 281 279 278 276 276 277 277 277
275 275 274 275 275 275 276 275 276 275 275 275 276 281 280 279 278 276 276 276 277 278
273 273 273 273 274 274 274 274 273 273 272 273 273 276 280 279 277 276 276 275 275 276
Wind_Speed
8 5 5 7 5 5 5 5 6 5 8 7 7 6 6 6 6 6 5 7 6 4
8 7 7 7 8 6 6 8 9 9 10 10 9 8 8 7 8 7 6 5 8 6
9 7 9 8 9 9 7 8 10 11 7 9 9 9 9 9 6 8 6 6 8 7
9 8 10 10 9 9 10 8 9 10 8 6 9 11 9 10 8 10 9 8 9 9
9 10 11 11 11 10 10 10 9 12 9 7 11 9 9 9 8 9 9 9 9 8
9 10 11 11 10 10 10 9 12 9 11 10 8 9 9 10 10 10 10 9 9 7
9 9 10 10 10 10 10 11 10 10 9 9 9 9 8 9 10 10 9 9 8 7
8 8 9 10 9 9 10 9 9 9 8 7 8 6 7 8 8 8 8 8 8 8
7 8 8 8 8 9 9 8 8 9 8 7 6 14 13 9 7 7 7 8 7 7
7 7 7 7 8 8 8 8 8 8 7 7 7 13 13 12 6 7 6 6 5 6
6 6 6 7 7 7 6 7 6 7 6 6 6 11 11 11 7 6 7 6 5 6
4 5 5 6 5 4 6 6 6 6 6 6 5 8 8 7 5 6 5 5 4 4
4 4 5 4 4 3 4 5 5 6 5 6 6 8 8 6 3 4 4 3 3 4
3 4 4 3 2 3 4 5 5 5 4 4 5 5 7 7 4 3 3 2 1 2
Wind_Direction
16 69 71 65 53 76 91 57 29 39 82 67 53 68 69 78 81 80 77 76 71 73
48 35 68 63 72 71 60 72 42 40 35 34 44 71 80 79 73 65 73 56 78 73
50 33 63 63 56 59 65 73 84 69 46 46 57 42 72 69 71 98 61 65 73 66
51 59 55 64 62 64 51 47 66 72 71 44 66 61 68 73 64 75 68 60 68 62
59 57 65 65 59 59 64 49 61 62 56 55 63 55 68 72 64 71 67 59 63 55
60 65 66 66 66 65 66 58 53 54 54 55 60 70 69 76 74 70 67 63 64 53
54 59 64 66 68 68 64 65 58 52 50 49 51 57 64 72 75 74 71 66 64 61
58 59 62 63 64 66 64 60 61 63 53 50 61 62 63 71 79 82 77 67 64 54
61 65 66 67 68 70 70 65 62 57 52 51 65 76 79 77 81 80 85 84 69 61
65 67 61 68 72 69 68 69 63 55 54 51 66 76 78 78 72 78 75 82 77 71
71 74 69 74 75 72 68 68 72 61 47 55 75 85 89 88 80 75 68 67 64 62
80 87 80 81 85 85 91 84 78 70 54 50 52 78 85 86 85 90 82 81 62 57
61 83 87 86 89 85 103 109 106 99 66 53 30 65 79 71 80 99 102 92 68 43
83 96 99 100 95 104 97 94 88 96 79 66 38 31 68 78 73 78 68 63 47 358